Weili Kongjian 01-03

operational
NORAD ID: 62578 Int'l Des: 2025-007 Owner: CENTI Country: CN
LEOCIRCULAR

Über Weili Kongjian 01-03

Beschreibung wird geladen...

Live-Position

3D-Globus wird geladen...

Nächste Überflüge

Höhenverlauf

Altitude vs Time

uPlot chart will show altitude changes over time

Zweizeiliger Elementsatz

1 62578U 25007D 26062.13455020 -.00000011 00000-0 11382-3 0 9999
2 62578 54.9836 303.3785 0009052 288.6580 71.3396 13.85856453 60066
Epoch: 3. März 2026 • Age: 29 hours

Aktueller Status

Höhe 953.9 km
Geschwindigkeit 7.38 km/s
Subsatellitenpunkt -42.55°S, 71.49°W
Startdatum 13. Jan. 2025
Alter 1.1 years
Typ other

Technische Details

Klassifizierung Payload
Masse 140.00 kg
Trockenmasse 140.00 kg
Gesamtmasse 140.00 kg
Länge 1.00 m
Durchmesser 0.50 m
Spannweite 2.00 m
Form Box + 2 pan
Hersteller DFHS
Bus-Typ WK01
Phasenstatus In Orbit
Besitzer/Staat CENTI/CN

Große Konstellationen

Loading constellations...